"read_dt","SO2 (ppb)","flags","PMT voltage (V)","lamp voltage (V)","lamp intensity (Hz)","internal temp (C)","react chamber temp (C)","sample flow (l/min)","pres (mmHg)","SO2 bkg (ppb)","SO2 coefficient"
2015-10-10 00:00:00,1918E-3,5C000400,-0724,0826,12140,028.7,045.4,0.254,761.4,01.16,0.508
2015-10-10 00:01:00,1812E-3,5C000400,-0724,0826,12291,028.6,045.5,0.255,761.4,01.16,0.508
2015-10-10 00:02:00,2076E-3,5C000400,-0724,0826,12116,028.5,045.4,0.255,761.4,01.16,0.508
2015-10-10 00:03:00,2030E-3,5C000400,-0724,0826,12283,028.5,045.5,0.255,761.4,01.16,0.508
2015-10-10 00:04:00,1996E-3,5C000400,-0724,0825,12252,028.6,045.5,0.255,761.4,01.16,0.508
2015-10-10 00:05:00,1951E-3,5C000400,-0724,0826,12214,028.7,045.5,0.255,761.3,01.16,0.508
2015-10-10 00:06:00,1955E-3,5C000400,-0724,0825,12234,028.8,045.5,0.255,761.4,01.16,0.508
2015-10-10 00:07:00,1943E-3,5C000400,-0724,0826,12311,028.9,045.5,0.255,761.3,01.16,0.508
2015-10-10 00:08:00,2039E-3,5C000400,-0724,0826,12245,028.9,045.5,0.255,761.3,01.16,0.508
2015-10-10 00:09:00,1896E-3,5C000400,-0724,0826,12239,028.9,045.5,0.255,761.3,01.16,0.508
2015-10-10 00:10:00,1820E-3,5C000400,-0724,0826,12025,028.9,045.5,0.255,761.3,01.16,0.508
2015-10-10 00:11:00,2017E-3,5C000400,-0724,0825,12216,028.8,045.5,0.255,761.3,01.16,0.508
2015-10-10 00:12:00,1909E-3,5C000400,-0724,0825,12095,028.7,045.5,0.255,761.4,01.16,0.508
2015-10-10 00:13:00,1914E-3,5C000400,-0724,0825,12303,028.6,045.5,0.255,761.4,01.16,0.508
2015-10-10 00:14:00,1931E-3,5C000400,-0724,0826,12204,028.5,045.4,0.255,761.4,01.16,0.508
2015-10-10 00:15:00,1868E-3,5C000400,-0724,0826,12342,028.5,045.5,0.255,761.4,01.16,0.508
2015-10-10 00:16:00,1832E-3,5C000400,-0724,0826,12228,028.5,045.5,0.255,761.4,01.16,0.508
2015-10-10 00:17:00,1966E-3,5C000400,-0724,0825,12157,028.6,045.5,0.255,761.4,01.16,0.508
2015-10-10 00:18:00,2073E-3,5C000400,-0724,0826,12201,028.7,045.5,0.255,761.3,01.16,0.508
2015-10-10 00:19:00,1857E-3,5C000400,-0724,0826,12261,028.8,045.5,0.255,761.3,01.16,0.508
2015-10-10 00:20:00,1917E-3,5C000400,-0724,0825,12205,028.8,045.5,0.255,761.3,01.16,0.508
2015-10-10 00:21:00,1776E-3,5C000400,-0724,0825,12186,028.9,045.5,0.255,761.3,01.16,0.508
2015-10-10 00:22:00,1872E-3,5C000400,-0724,0826,12160,029.0,045.5,0.255,761.3,01.16,0.508
2015-10-10 00:23:00,2010E-3,5C000400,-0724,0826,12334,029.1,045.5,0.255,761.3,01.16,0.508
2015-10-10 00:24:00,1977E-3,5C000400,-0724,0825,12260,029.1,045.5,0.255,761.3,01.16,0.508
2015-10-10 00:25:00,1997E-3,5C000400,-0724,0826,12312,029.0,045.5,0.255,761.3,01.16,0.508
2015-10-10 00:26:00,1868E-3,5C000400,-0724,0826,12301,028.9,045.5,0.254,761.3,01.16,0.508
2015-10-10 00:27:00,2047E-3,5C000400,-0724,0826,12319,028.7,045.5,0.255,761.3,01.16,0.508
2015-10-10 00:28:00,1972E-3,5C000400,-0724,0826,12188,028.7,045.5,0.255,761.3,01.16,0.508
2015-10-10 00:29:00,1966E-3,5C000400,-0724,0826,12254,028.6,045.5,0.255,761.3,01.16,0.508
2015-10-10 00:30:00,1867E-3,5C000400,-0724,0826,12020,028.5,045.5,0.255,761.3,01.16,0.508
2015-10-10 00:31:00,1918E-3,5C000400,-0724,0827,12242,028.5,045.5,0.255,761.3,01.16,0.508
2015-10-10 00:32:00,1935E-3,5C000400,-0724,0826,12292,028.7,045.5,0.255,761.3,01.16,0.508
2015-10-10 00:33:00,1889E-3,5C000400,-0724,0826,12443,028.7,045.5,0.255,761.3,01.16,0.508
2015-10-10 00:34:00,1897E-3,5C000400,-0724,0826,12208,028.8,045.5,0.255,761.3,01.16,0.508
2015-10-10 00:35:00,1922E-3,5C000400,-0724,0826,12291,028.9,045.5,0.255,761.3,01.16,0.508
2015-10-10 00:36:00,1907E-3,5C000400,-0724,0826,12268,028.9,045.5,0.255,761.3,01.16,0.508
2015-10-10 00:37:00,1864E-3,5C000400,-0724,0826,12229,028.9,045.5,0.255,761.3,01.16,0.508
2015-10-10 00:38:00,1729E-3,5C000400,-0724,0826,12315,028.8,045.5,0.255,761.3,01.16,0.508
2015-10-10 00:39:00,1906E-3,5C000400,-0724,0826,12314,028.8,045.5,0.255,761.3,01.16,0.508
2015-10-10 00:40:00,1837E-3,5C000400,-0724,0826,12247,028.6,045.5,0.255,761.3,01.16,0.508
2015-10-10 00:41:00,1875E-3,5C000400,-0724,0826,12272,028.6,045.4,0.255,761.3,01.16,0.508
2015-10-10 00:42:00,1884E-3,5C000400,-0724,0826,12241,028.6,045.5,0.255,761.3,01.16,0.508
2015-10-10 00:43:00,2068E-3,5C000400,-0724,0826,12258,028.6,045.5,0.255,761.3,01.16,0.508
2015-10-10 00:44:00,2043E-3,5C000400,-0724,0826,12136,028.7,045.5,0.255,761.3,01.16,0.508
2015-10-10 00:45:00,1940E-3,5C000400,-0724,0826,12247,028.8,045.5,0.255,761.3,01.16,0.508
2015-10-10 00:46:00,1953E-3,5C000400,-0724,0826,12065,028.8,045.5,0.255,761.3,01.16,0.508
2015-10-10 00:47:00,1895E-3,5C000400,-0724,0827,12235,028.8,045.5,0.255,761.3,01.16,0.508
2015-10-10 00:48:00,1911E-3,5C000400,-0724,0826,12260,028.8,045.5,0.255,761.3,01.16,0.508
2015-10-10 00:49:00,1925E-3,5C000400,-0724,0826,12198,028.7,045.5,0.255,761.3,01.16,0.508
2015-10-10 00:50:00,1993E-3,5C000400,-0724,0826,12271,028.6,045.4,0.255,761.3,01.16,0.508
2015-10-10 00:51:00,1860E-3,5C000400,-0724,0826,12238,028.6,045.4,0.255,761.3,01.16,0.508
2015-10-10 00:52:00,1835E-3,5C000400,-0724,0826,12228,028.6,045.5,0.255,761.3,01.16,0.508
2015-10-10 00:53:00,2056E-3,5C000400,-0724,0826,12385,028.7,045.5,0.255,761.3,01.16,0.508
2015-10-10 00:54:00,2004E-3,5C000400,-0724,0826,12330,028.7,045.5,0.255,761.3,01.16,0.508
2015-10-10 00:55:00,1922E-3,5C000400,-0724,0826,12162,028.8,045.5,0.255,761.3,01.16,0.508
2015-10-10 00:56:00,2022E-3,5C000400,-0724,0826,11993,028.8,045.5,0.255,761.3,01.16,0.508
2015-10-10 00:57:00,1994E-3,5C000400,-0724,0826,12132,028.9,045.5,0.256,761.2,01.16,0.508
2015-10-10 00:58:00,1847E-3,5C000400,-0724,0826,12237,028.8,045.5,0.255,761.2,01.16,0.508
2015-10-10 00:59:00,1940E-3,5C000400,-0724,0825,12314,028.7,045.5,0.256,761.2,01.16,0.508
2015-10-10 01:00:00,1948E-3,5C000400,-0724,0826,12231,028.5,045.5,0.255,761.3,01.16,0.508
2015-10-10 01:01:00,1830E-3,5C000400,-0724,0826,12412,028.5,045.4,0.255,761.3,01.16,0.508
2015-10-10 01:02:00,1996E-3,5C000400,-0724,0825,12301,028.5,045.5,0.255,761.3,01.16,0.508
2015-10-10 01:03:00,2001E-3,5C000400,-0724,0825,12399,028.5,045.5,0.255,761.3,01.16,0.508
2015-10-10 01:04:00,1907E-3,5C000400,-0724,0827,12291,028.7,045.5,0.255,761.3,01.16,0.508
2015-10-10 01:05:00,1920E-3,5C000400,-0724,0826,12135,028.7,045.5,0.255,761.3,01.16,0.508
2015-10-10 01:06:00,1960E-3,5C000400,-0724,0826,12243,028.8,045.5,0.255,761.3,01.16,0.508
2015-10-10 01:07:00,1850E-3,5C000400,-0724,0826,12126,028.7,045.5,0.255,761.3,01.16,0.508
2015-10-10 01:08:00,1907E-3,5C000400,-0724,0826,12312,028.6,045.5,0.255,761.3,01.16,0.508
2015-10-10 01:09:00,1841E-3,5C000400,-0724,0825,12274,028.5,045.5,0.255,761.3,01.16,0.508
2015-10-10 01:10:00,1963E-3,5C000400,-0724,0826,12244,028.5,045.5,0.255,761.4,01.16,0.508
2015-10-10 01:11:00,1954E-3,5C000400,-0724,0825,12184,028.6,045.5,0.255,761.3,01.16,0.508
2015-10-10 01:12:00,1867E-3,5C000400,-0724,0826,12185,028.6,045.5,0.255,761.3,01.16,0.508
2015-10-10 01:13:00,1865E-3,5C000400,-0724,0826,12201,028.6,045.5,0.255,761.3,01.16,0.508
2015-10-10 01:14:00,1827E-3,5C000400,-0724,0826,12425,028.5,045.5,0.255,761.3,01.16,0.508
2015-10-10 01:15:00,2088E-3,5C000400,-0724,0825,12289,028.5,045.5,0.255,761.4,01.16,0.508
2015-10-10 01:16:00,2039E-3,5C000400,-0724,0826,12156,028.6,045.5,0.256,761.3,01.16,0.508
2015-10-10 01:17:00,1927E-3,5C000400,-0724,0826,12193,028.6,045.5,0.255,761.3,01.16,0.508
2015-10-10 01:18:00,1935E-3,5C000400,-0724,0826,12338,028.5,045.5,0.255,761.3,01.16,0.508
2015-10-10 01:19:00,1950E-3,5C000400,-0724,0826,12186,028.4,045.4,0.255,761.4,01.16,0.508
2015-10-10 01:20:00,1855E-3,5C000400,-0724,0826,12077,028.4,045.4,0.255,761.4,01.16,0.508
2015-10-10 01:21:00,1994E-3,5C000400,-0724,0826,12238,028.3,045.4,0.255,761.4,01.16,0.508
2015-10-10 01:22:00,1870E-3,5C000400,-0724,0826,12188,028.4,045.5,0.255,761.4,01.16,0.508
2015-10-10 01:23:00,1932E-3,5C000400,-0724,0825,12243,028.5,045.5,0.255,761.3,01.16,0.508
2015-10-10 01:24:00,1854E-3,5C000400,-0724,0826,12198,028.5,045.5,0.256,761.4,01.16,0.508
2015-10-10 01:25:00,1944E-3,5C000400,-0724,0826,12169,028.5,045.5,0.256,761.4,01.16,0.508
2015-10-10 01:26:00,1970E-3,5C000400,-0724,0825,12336,028.5,045.4,0.256,761.4,01.16,0.508
2015-10-10 01:27:00,1928E-3,5C000400,-0724,0826,12207,028.5,045.5,0.256,761.4,01.16,0.508
2015-10-10 01:28:00,1810E-3,5C000400,-0724,0826,12298,028.4,045.5,0.256,761.4,01.16,0.508
2015-10-10 01:29:00,1895E-3,5C000400,-0724,0826,12280,028.5,045.5,0.255,761.4,01.16,0.508
2015-10-10 01:30:00,1813E-3,5C000400,-0724,0826,12332,028.5,045.5,0.255,761.4,01.16,0.508
2015-10-10 01:31:00,1874E-3,5C000400,-0724,0826,12152,028.4,045.5,0.255,761.4,01.16,0.508
2015-10-10 01:32:00,1989E-3,5C000400,-0724,0825,12290,028.5,045.4,0.255,761.4,01.16,0.508
2015-10-10 01:33:00,1984E-3,5C000400,-0724,0826,12098,028.5,045.4,0.255,761.4,01.16,0.508
2015-10-10 01:34:00,1994E-3,5C000400,-0724,0826,12209,028.4,045.5,0.255,761.4,01.16,0.508
2015-10-10 01:35:00,1833E-3,5C000400,-0724,0825,12300,028.4,045.4,0.256,761.4,01.16,0.508
2015-10-10 01:36:00,1891E-3,5C000400,-0724,0826,12174,028.4,045.5,0.256,761.4,01.16,0.508
2015-10-10 01:37:00,1882E-3,5C000400,-0724,0826,12073,028.5,045.5,0.256,761.4,01.16,0.508
2015-10-10 01:38:00,2017E-3,5C000400,-0724,0826,12217,028.6,045.5,0.256,761.3,01.16,0.508
2015-10-10 01:39:00,1843E-3,5C000400,-0724,0826,12236,028.6,045.5,0.256,761.3,01.16,0.508
2015-10-10 01:40:00,1778E-3,5C000400,-0724,0827,12377,028.6,045.5,0.256,761.4,01.16,0.508
2015-10-10 01:41:00,1883E-3,5C000400,-0724,0826,12306,028.5,045.5,0.255,761.4,01.16,0.508
2015-10-10 01:42:00,1934E-3,5C000400,-0724,0825,12327,028.5,045.4,0.255,761.3,01.16,0.508
2015-10-10 01:43:00,1892E-3,5C000400,-0724,0826,12159,028.5,045.4,0.255,761.4,01.16,0.508
2015-10-10 01:44:00,1897E-3,5C000400,-0724,0827,12240,028.5,045.5,0.255,761.4,01.16,0.508
2015-10-10 01:45:00,1868E-3,5C000400,-0724,0825,12119,028.6,045.5,0.255,761.3,01.16,0.508
2015-10-10 01:46:00,1894E-3,5C000400,-0724,0826,12197,028.6,045.5,0.255,761.3,01.16,0.508
2015-10-10 01:47:00,1814E-3,5C000400,-0724,0826,12127,028.6,045.5,0.255,761.4,01.16,0.508
2015-10-10 01:48:00,1950E-3,5C000400,-0724,0826,12245,028.6,045.5,0.256,761.4,01.16,0.508
2015-10-10 01:49:00,1932E-3,5C000400,-0724,0826,12211,028.5,045.5,0.256,761.4,01.16,0.508
2015-10-10 01:50:00,2090E-3,5C000400,-0724,0825,12102,028.5,045.5,0.255,761.4,01.16,0.508
2015-10-10 01:51:00,1751E-3,5C000400,-0724,0826,12184,028.6,045.5,0.255,761.4,01.16,0.508
2015-10-10 01:52:00,1914E-3,5C000400,-0724,0826,12079,028.6,045.5,0.255,761.4,01.16,0.508
2015-10-10 01:53:00,1783E-3,5C000400,-0724,0826,12283,028.6,045.5,0.255,761.4,01.16,0.508
2015-10-10 01:54:00,2074E-3,5C000400,-0724,0825,12197,028.6,045.5,0.255,761.4,01.16,0.508
2015-10-10 01:55:00,1879E-3,5C000400,-0724,0825,12212,028.5,045.5,0.255,761.4,01.16,0.508
2015-10-10 01:56:00,2047E-3,5C000400,-0724,0826,12011,028.4,045.4,0.256,761.3,01.16,0.508
2015-10-10 01:57:00,1928E-3,5C000400,-0724,0825,12251,028.4,045.4,0.256,761.3,01.16,0.508
2015-10-10 01:58:00,1896E-3,5C000400,-0724,0825,12220,028.3,045.5,0.256,761.4,01.16,0.508
2015-10-10 01:59:00,1876E-3,5C000400,-0724,0826,12420,028.4,045.4,0.255,761.3,01.16,0.508
2015-10-10 02:00:00,1967E-3,5C000400,-0724,0826,12339,028.5,045.5,0.255,761.3,01.16,0.508
2015-10-10 02:01:00,1996E-3,5C000400,-0724,0826,12208,028.6,045.5,0.255,761.3,01.16,0.508
2015-10-10 02:02:00,1879E-3,5C000400,-0724,0826,12190,028.7,045.5,0.255,761.4,01.16,0.508
2015-10-10 02:03:00,1922E-3,5C000400,-0724,0826,12241,028.7,045.5,0.255,761.4,01.16,0.508
2015-10-10 02:04:00,1828E-3,5C000400,-0724,0826,12165,028.7,045.5,0.255,761.4,01.16,0.508
2015-10-10 02:05:00,1978E-3,5C000400,-0724,0826,12258,028.7,045.5,0.255,761.4,01.16,0.508
2015-10-10 02:06:00,1930E-3,5C000400,-0724,0826,12318,028.7,045.5,0.255,761.4,01.16,0.508
2015-10-10 02:07:00,1798E-3,5C000400,-0724,0826,12255,028.6,045.5,0.255,761.4,01.16,0.508
2015-10-10 02:08:00,1987E-3,5C000400,-0724,0826,12280,028.5,045.5,0.255,761.4,01.16,0.508
2015-10-10 02:09:00,1943E-3,5C000400,-0724,0826,12213,028.4,045.4,0.255,761.4,01.16,0.508
2015-10-10 02:10:00,1981E-3,5C000400,-0724,0826,12221,028.4,045.4,0.255,761.4,01.16,0.508
2015-10-10 02:11:00,1954E-3,5C000400,-0724,0826,12224,028.3,045.4,0.255,761.4,01.16,0.508
2015-10-10 02:12:00,1971E-3,5C000400,-0724,0826,12072,028.3,045.5,0.255,761.4,01.16,0.508
2015-10-10 02:13:00,1996E-3,5C000400,-0724,0826,12169,028.5,045.5,0.255,761.4,01.16,0.508
2015-10-10 02:14:00,1900E-3,5C000400,-0724,0825,12200,028.6,045.5,0.256,761.4,01.16,0.508
2015-10-10 02:15:00,1927E-3,5C000400,-0724,0827,12202,028.7,045.5,0.256,761.4,01.16,0.508
2015-10-10 02:16:00,1918E-3,5C000400,-0724,0826,12253,028.7,045.5,0.256,761.4,01.16,0.508
2015-10-10 02:17:00,1871E-3,5C000400,-0724,0826,12256,028.8,045.4,0.256,761.4,01.16,0.508
2015-10-10 02:18:00,1983E-3,5C000400,-0724,0826,12227,028.8,045.4,0.256,761.4,01.16,0.508
2015-10-10 02:19:00,1859E-3,5C000400,-0724,0825,12197,028.7,045.4,0.255,761.3,01.16,0.508
2015-10-10 02:20:00,1873E-3,5C000400,-0724,0826,12271,028.6,045.5,0.255,761.4,01.16,0.508
2015-10-10 02:21:00,1893E-3,5C000400,-0724,0826,12344,028.5,045.5,0.255,761.4,01.16,0.508
2015-10-10 02:22:00,1991E-3,5C000400,-0724,0826,12226,028.5,045.4,0.255,761.4,01.16,0.508
2015-10-10 02:23:00,1963E-3,5C000400,-0724,0826,12139,028.4,045.4,0.255,761.4,01.16,0.508
2015-10-10 02:24:00,1857E-3,5C000400,-0724,0826,12194,028.4,045.4,0.255,761.4,01.16,0.508
2015-10-10 02:25:00,1876E-3,5C000400,-0724,0825,12170,028.5,045.5,0.256,761.4,01.16,0.508
2015-10-10 02:26:00,1979E-3,5C000400,-0724,0825,12219,028.6,045.5,0.256,761.4,01.16,0.508
2015-10-10 02:27:00,2002E-3,5C000400,-0724,0826,12343,028.7,045.5,0.256,761.3,01.16,0.508
2015-10-10 02:28:00,2025E-3,5C000400,-0724,0826,12234,028.9,045.5,0.255,761.4,01.16,0.508
2015-10-10 02:29:00,2013E-3,5C000400,-0724,0826,12306,028.9,045.5,0.255,761.3,01.16,0.508
2015-10-10 02:30:00,1950E-3,5C000400,-0724,0826,12109,029.0,045.5,0.255,761.3,01.16,0.508
2015-10-10 02:31:00,2074E-3,5C000400,-0724,0825,12140,029.0,045.5,0.255,761.3,01.16,0.508
2015-10-10 02:32:00,1866E-3,5C000400,-0724,0825,12200,028.9,045.5,0.255,761.4,01.16,0.508
2015-10-10 02:33:00,1858E-3,5C000400,-0724,0826,12215,028.8,045.5,0.255,761.3,01.16,0.508
2015-10-10 02:34:00,1892E-3,5C000400,-0724,0826,12279,028.7,045.5,0.255,761.3,01.16,0.508
2015-10-10 02:35:00,1796E-3,5C000400,-0724,0826,12174,028.6,045.5,0.255,761.3,01.16,0.508
2015-10-10 02:36:00,1820E-3,5C000400,-0724,0826,12298,028.5,045.5,0.255,761.3,01.16,0.508
2015-10-10 02:37:00,2072E-3,5C000400,-0724,0825,12255,028.4,045.5,0.255,761.4,01.16,0.508
2015-10-10 02:38:00,1992E-3,5C000400,-0724,0825,12339,028.4,045.5,0.255,761.2,01.16,0.508
2015-10-10 02:39:00,2038E-3,5C000400,-0724,0825,12153,028.4,045.5,0.255,761.3,01.16,0.508
2015-10-10 02:40:00,1918E-3,5C000400,-0724,0825,12230,028.5,045.5,0.255,761.2,01.16,0.508
2015-10-10 02:41:00,1883E-3,5C000400,-0724,0825,12260,028.7,045.5,0.255,761.2,01.16,0.508
2015-10-10 02:42:00,1887E-3,5C000400,-0724,0825,12242,028.7,045.5,0.255,761.2,01.16,0.508
2015-10-10 02:43:00,1988E-3,5C000400,-0724,0826,12217,028.9,045.5,0.255,761.2,01.16,0.508
2015-10-10 02:44:00,1944E-3,5C000400,-0724,0826,12249,029.0,045.5,0.255,761.2,01.16,0.508
2015-10-10 02:45:00,1990E-3,5C000400,-0724,0825,12245,029.0,045.5,0.255,761.1,01.16,0.508
2015-10-10 02:46:00,1947E-3,5C000400,-0724,0826,12265,029.0,045.5,0.255,761.2,01.16,0.508
2015-10-10 02:47:00,1803E-3,5C000400,-0724,0827,12091,028.9,045.4,0.255,761.2,01.16,0.508
2015-10-10 02:48:00,1988E-3,5C000400,-0724,0825,12247,028.8,045.5,0.255,761.3,01.16,0.508
2015-10-10 02:49:00,2012E-3,5C000400,-0724,0825,12265,028.6,045.4,0.255,761.2,01.16,0.508
2015-10-10 02:50:00,1856E-3,5C000400,-0724,0825,12175,028.6,045.5,0.255,761.2,01.16,0.508
2015-10-10 02:51:00,2039E-3,5C000400,-0724,0825,12108,028.5,045.5,0.255,761.2,01.16,0.508
2015-10-10 02:52:00,1913E-3,5C000400,-0724,0824,12219,028.4,045.4,0.255,761.3,01.16,0.508
2015-10-10 02:53:00,1866E-3,5C000400,-0724,0825,12210,028.4,045.5,0.255,761.2,01.16,0.508
2015-10-10 02:54:00,1834E-3,5C000400,-0724,0825,12190,028.5,045.5,0.255,761.3,01.16,0.508
2015-10-10 02:55:00,1832E-3,5C000400,-0724,0826,12210,028.6,045.5,0.255,761.3,01.16,0.508
2015-10-10 02:56:00,1845E-3,5C000400,-0724,0825,12270,028.8,045.5,0.256,761.2,01.16,0.508
2015-10-10 02:57:00,1897E-3,5C000400,-0724,0826,12218,028.8,045.5,0.256,761.1,01.16,0.508
2015-10-10 02:58:00,1915E-3,5C000400,-0724,0826,12215,029.0,045.5,0.256,761.2,01.16,0.508
2015-10-10 02:59:00,2064E-3,5C000400,-0724,0825,12200,029.0,045.5,0.256,761.1,01.16,0.508
2015-10-10 03:00:00,1970E-3,5C000400,-0724,0825,12265,028.9,045.5,0.255,761.1,01.16,0.508
2015-10-10 03:01:00,2083E-3,5C000400,-0724,0826,12296,028.8,045.5,0.255,761.2,01.16,0.508
2015-10-10 03:02:00,1916E-3,5C000400,-0724,0826,12259,028.7,045.5,0.255,761.2,01.16,0.508
2015-10-10 03:03:00,1966E-3,5C000400,-0724,0826,12131,028.6,045.4,0.255,761.2,01.16,0.508
2015-10-10 03:04:00,1921E-3,5C000400,-0724,0826,12326,028.5,045.4,0.255,761.2,01.16,0.508
2015-10-10 03:05:00,1841E-3,5C000400,-0724,0826,12318,028.5,045.5,0.255,761.3,01.16,0.508
2015-10-10 03:06:00,1933E-3,5C000400,-0724,0826,12139,028.5,045.5,0.255,761.3,01.16,0.508
2015-10-10 03:07:00,1824E-3,5C000400,-0724,0825,12232,028.6,045.5,0.255,761.2,01.16,0.508
2015-10-10 03:08:00,1977E-3,5C000400,-0724,0826,12210,028.7,045.5,0.255,761.3,01.16,0.508
2015-10-10 03:09:00,1954E-3,5C000400,-0724,0825,12315,028.8,045.5,0.255,761.3,01.16,0.508
2015-10-10 03:10:00,1873E-3,5C000400,-0724,0826,12278,028.9,045.5,0.255,761.2,01.16,0.508
2015-10-10 03:11:00,1920E-3,5C000400,-0724,0826,12324,028.9,045.5,0.255,761.2,01.16,0.508
2015-10-10 03:12:00,2012E-3,5C000400,-0724,0826,12356,028.9,045.5,0.255,761.2,01.16,0.508
2015-10-10 03:13:00,1956E-3,5C000400,-0724,0826,12308,028.9,045.5,0.255,761.2,01.16,0.508
2015-10-10 03:14:00,2014E-3,5C000400,-0724,0826,12305,028.8,045.5,0.255,761.2,01.16,0.508
2015-10-10 03:15:00,1947E-3,5C000400,-0724,0825,12288,028.7,045.5,0.255,761.3,01.16,0.508
2015-10-10 03:16:00,1830E-3,5C000400,-0724,0825,12305,028.6,045.5,0.255,761.4,01.16,0.508
2015-10-10 03:17:00,1816E-3,5C000400,-0724,0825,12281,028.5,045.5,0.255,761.3,01.16,0.508
2015-10-10 03:18:00,1951E-3,5C000400,-0724,0825,12263,028.5,045.5,0.255,761.3,01.16,0.508
2015-10-10 03:19:00,1922E-3,5C000400,-0724,0827,12232,028.6,045.5,0.255,761.2,01.16,0.508
2015-10-10 03:20:00,1921E-3,5C000400,-0724,0826,12212,028.7,045.5,0.255,761.2,01.16,0.508
2015-10-10 03:21:00,2061E-3,5C000400,-0724,0826,12263,028.7,045.5,0.255,761.1,01.16,0.508
2015-10-10 03:22:00,1889E-3,5C000400,-0724,0827,12275,028.7,045.5,0.255,761.3,01.16,0.508
2015-10-10 03:23:00,2014E-3,5C000400,-0724,0826,12210,028.7,045.5,0.255,761.3,01.16,0.508
2015-10-10 03:24:00,1790E-3,5C000400,-0724,0826,12241,028.6,045.5,0.255,761.3,01.16,0.508
2015-10-10 03:25:00,1908E-3,5C000400,-0724,0826,12280,028.6,045.5,0.255,761.2,01.16,0.508
2015-10-10 03:26:00,2113E-3,5C000400,-0724,0826,12216,028.6,045.5,0.255,761.3,01.16,0.508
2015-10-10 03:27:00,1856E-3,5C000400,-0724,0826,12030,028.7,045.5,0.255,761.3,01.16,0.508
2015-10-10 03:28:00,1927E-3,5C000400,-0724,0826,12207,028.7,045.5,0.255,761.3,01.16,0.508
2015-10-10 03:29:00,1806E-3,5C000400,-0724,0826,12209,028.7,045.5,0.255,761.3,01.16,0.508
2015-10-10 03:30:00,1918E-3,5C000400,-0724,0826,12267,028.6,045.5,0.255,761.3,01.16,0.508
2015-10-10 03:31:00,1836E-3,5C000400,-0724,0825,12147,028.6,045.5,0.255,761.3,01.16,0.508
2015-10-10 03:32:00,1913E-3,5C000400,-0724,0825,12221,028.6,045.5,0.255,761.4,01.16,0.508
2015-10-10 03:33:00,1960E-3,5C000400,-0724,0825,12386,028.7,045.5,0.255,761.3,01.16,0.508
2015-10-10 03:34:00,2008E-3,5C000400,-0724,0826,12222,028.8,045.5,0.255,761.3,01.16,0.508
2015-10-10 03:35:00,2029E-3,5C000400,-0724,0826,12221,028.8,045.5,0.255,761.3,01.16,0.508
2015-10-10 03:36:00,1948E-3,5C000400,-0724,0825,12346,028.8,045.5,0.255,761.3,01.16,0.508
2015-10-10 03:37:00,1819E-3,5C000400,-0724,0826,12247,028.8,045.5,0.255,761.3,01.16,0.508
2015-10-10 03:38:00,1967E-3,5C000400,-0724,0826,12196,028.6,045.5,0.255,761.4,01.16,0.508
2015-10-10 03:39:00,1943E-3,5C000400,-0724,0826,12064,028.6,045.5,0.255,761.3,01.16,0.508
2015-10-10 03:40:00,1995E-3,5C000400,-0724,0826,12332,028.5,045.5,0.255,761.3,01.16,0.508
2015-10-10 03:41:00,1852E-3,5C000400,-0724,0825,12298,028.4,045.4,0.255,761.3,01.16,0.508
2015-10-10 03:42:00,1892E-3,5C000400,-0724,0825,12336,028.4,045.5,0.255,761.3,01.16,0.508
2015-10-10 03:43:00,1834E-3,5C000400,-0724,0825,12189,028.6,045.5,0.255,761.2,01.16,0.508
2015-10-10 03:44:00,1929E-3,5C000400,-0724,0826,12286,028.6,045.5,0.255,761.3,01.16,0.508
2015-10-10 03:45:00,1999E-3,5C000400,-0724,0826,12273,028.7,045.5,0.256,761.3,01.16,0.508
2015-10-10 03:46:00,2068E-3,5C000400,-0724,0826,12197,028.8,045.5,0.256,761.3,01.16,0.508
2015-10-10 03:47:00,2053E-3,5C000400,-0724,0827,12214,028.7,045.5,0.255,761.3,01.16,0.508
2015-10-10 03:48:00,1906E-3,5C000400,-0724,0825,12169,028.6,045.5,0.255,761.3,01.16,0.508
2015-10-10 03:49:00,1986E-3,5C000400,-0724,0825,12233,028.5,045.4,0.255,761.3,01.16,0.508
2015-10-10 03:50:00,1899E-3,5C000400,-0724,0826,12249,028.5,045.4,0.255,761.3,01.16,0.508
2015-10-10 03:51:00,1936E-3,5C000400,-0724,0826,12267,028.4,045.5,0.255,761.3,01.16,0.508
2015-10-10 03:52:00,1835E-3,5C000400,-0724,0826,12168,028.5,045.4,0.255,761.3,01.16,0.508
2015-10-10 03:53:00,1951E-3,5C000400,-0724,0825,12262,028.6,045.5,0.256,761.2,01.16,0.508
2015-10-10 03:54:00,2026E-3,5C000400,-0724,0826,12183,028.6,045.5,0.256,761.3,01.16,0.508
2015-10-10 03:55:00,1937E-3,5C000400,-0724,0826,12323,028.7,045.5,0.255,761.3,01.16,0.508
2015-10-10 03:56:00,2001E-3,5C000400,-0724,0826,12355,028.6,045.5,0.255,761.3,01.16,0.508
2015-10-10 03:57:00,1869E-3,5C000400,-0724,0825,12314,028.6,045.5,0.255,761.2,01.16,0.508
2015-10-10 03:58:00,1858E-3,5C000400,-0724,0825,12265,028.5,045.5,0.256,761.2,01.16,0.508
2015-10-10 03:59:00,1956E-3,5C000400,-0724,0826,12329,028.5,045.4,0.256,761.3,01.16,0.508
2015-10-10 04:00:00,1907E-3,5C000400,-0724,0826,12082,028.6,045.5,0.255,761.3,01.16,0.508
2015-10-10 04:01:00,1808E-3,5C000400,-0724,0826,12358,028.6,045.5,0.255,761.3,01.16,0.508
2015-10-10 04:02:00,1959E-3,5C000400,-0724,0826,12084,028.7,045.5,0.255,761.2,01.16,0.508
2015-10-10 04:03:00,1973E-3,5C000400,-0724,0825,12310,028.6,045.5,0.255,761.2,01.16,0.508
2015-10-10 04:04:00,1889E-3,5C000400,-0724,0826,12295,028.6,045.5,0.255,761.2,01.16,0.508
2015-10-10 04:05:00,1881E-3,5C000400,-0724,0826,12242,028.5,045.5,0.255,761.2,01.16,0.508
2015-10-10 04:06:00,1902E-3,5C000400,-0724,0825,12328,028.5,045.5,0.255,761.2,01.16,0.508
2015-10-10 04:07:00,1916E-3,5C000400,-0724,0826,12267,028.5,045.5,0.256,761.2,01.16,0.508
2015-10-10 04:08:00,1883E-3,5C000400,-0724,0826,12166,028.6,045.4,0.256,761.2,01.16,0.508
2015-10-10 04:09:00,1885E-3,5C000400,-0724,0826,12154,028.7,045.5,0.255,761.2,01.16,0.508
2015-10-10 04:10:00,1990E-3,5C000400,-0724,0826,12286,028.7,045.5,0.255,761.2,01.16,0.508
2015-10-10 04:11:00,1966E-3,5C000400,-0724,0826,12141,028.7,045.5,0.255,761.2,01.16,0.508
2015-10-10 04:12:00,2029E-3,5C000400,-0724,0826,12263,028.5,045.5,0.255,761.2,01.16,0.508
2015-10-10 04:13:00,1867E-3,5C000400,-0724,0825,12234,028.4,045.5,0.255,761.2,01.16,0.508
2015-10-10 04:14:00,1847E-3,5C000400,-0724,0825,12321,028.4,045.5,0.255,761.2,01.16,0.508
2015-10-10 04:15:00,1927E-3,5C000400,-0724,0826,12269,028.3,045.5,0.255,761.3,01.16,0.508
2015-10-10 04:16:00,1986E-3,5C000400,-0724,0825,12113,028.4,045.5,0.256,761.2,01.16,0.508
2015-10-10 04:17:00,1866E-3,5C000400,-0724,0825,12219,028.5,045.5,0.256,761.2,01.16,0.508
2015-10-10 04:18:00,1895E-3,5C000400,-0724,0826,12306,028.6,045.5,0.256,761.2,01.16,0.508
2015-10-10 04:19:00,1929E-3,5C000400,-0724,0826,12168,028.8,045.5,0.256,761.2,01.16,0.508
2015-10-10 04:20:00,1941E-3,5C000400,-0724,0826,12196,028.8,045.5,0.256,761.2,01.16,0.508